STARLINK-1801 (46701 NORAD) Tracking and Keplerian Element Data

This shows tracking and keplerian element data for the satellite.

Feedback or suggestion? Click here.




ElementValue
Catalog46701
NameSTARLINK-1801
Epoch Orbit179
Epoch Day17.91667824
Epoch Year2021
RAAN26.7611
Inclination53.0586
Eccentricity0.000146
Argument of Perigee74.9587
Mean Anonmoly161.8856
Mean Motion15.06386762
Decay Rate0.00035089
L11 46701U 20073AH 21017.91667824 .00035089 00000-0 23637-2 0 9992
L22 46701 53.0586 26.7611 0001460 74.9587 161.8856 15.06386762 1797

Live tracking and technical data element details for STARLINK-1801 (NORAD 46701). STARLINK-1801 can be tracked NOW for your location showing map with azimuth and elevation plus other details from your city location.

Track the satellite on the map from your city or location and see movement details for azimuth, elevation, latitude, longitude, range, height, and movement on the map or in text.







IsCatalogInMostPopularTable: catalog: 46701, numindb: 27
Update: records affected: 1



GetName: 46701 STARLINK-1801

Hit Count: updated at: Tue, 19 Jan 2021 02:16:06 GMT